FENGYUN 1C DEB

Satellite information

Favourite Embed

Satellite Type and Status

DEBRISIN ORBIT

Key statistics

Satellite FENGYUN 1C DEB at a glance.

Uptime

9554

Days in orbit

Revolutions

≈ 14.1

Per day

Orbit

SSO

Sun Synchronous Orbit

Inclination

98.4

Latest

Satellite identification and parameters

Extended collection of information and parameters for FENGYUN 1C DEB.

Object identification

Identified? True

Debris? True

Object name: FENGYUN 1C DEB

International designator: 1999-025CZX

Object number (NORAD): 32411

Object ID (CCSDS): 32411

Country: PEOPLES REPUBLIC OF CHINA (PRC)

Current information (Y/N): Y

RCS size: SMALL

Orbital parameters

Period: 102.159 minutes

Inclination: 98.4222 deg

SMA: 7239.012 km

Apoapsis: 951.053 km

Periapsis: 770.702 km

RAAN: 107.1952 deg

Eccentricy: 0.0124569

Argument of periapsis: 135.8487 deg

Mean anomaly: 225.2709 deg

Mean motion: 14.09560724 rev/day

Mean motion (dot): 0.00000432 rev/day2

B* drag term: 0.00025038 1/REarth

Two-line elements (TLE)

Creation date: June 27, 2025, 5:57 p.m.

Reference frame: TEME

Reference center: EARTH

Epoch: June 27, 2025, 12:39 p.m. UTC

TLE line 0: 0 FENGYUN 1C DEB

TLE line 1: 1 32411U 99025CZX 25178.52727819 .00000432 00000-0 25038-3 0 9990

TLE line 2: 2 32411 98.4222 107.1952 0124569 135.8487 225.2709 14.09560724634444

Live tracking on map

Real-time ground track for satellite FENGYUN 1C DEB.

In-orbit conjunctions

A list of the most updated potential collisions computed for object FENGYUN 1C DEB.

Target Orbit TCA Probability of collision Miss distance Type
COSMOS 1269 LEO 2024-10-11 23:19:57 0.0001230281 473.0 (m) PAYLOAD

Associated space launch

Chinese polar orbiting meteorological satellite

FENGYUN 1C DEB was lifted into orbit during the mission ‘Long March 4B | Feng Yun 1C’, on board a Long March 4B space rocket.

The launch took place on May 10, 1999, 1:33 a.m. from Launch Complex 7.

For more information about the launch, click the button.

Launch to space Long March 4B | Feng Yun 1C
Long March 4B | Feng Yun 1C

Agency: N/A

Status: Launch Successful

Launch date: May 10, 1999, 1:33 a.m. UTC

Rocket: Long March 4B

Launch pad: Launch Complex 7

Location: Taiyuan Satellite Launch Center, People's Republic of China

...

Latest news about this satellite

There are no fresh news available about this satellite. Check back as we update our databases every day.


Newsletter sign-up

Weekly statistics, charts and insights to help you stay on top of the space industry.